Regional Weather Roundup
Issued by NWS

Home | Current Version | Previous Version | Text Only | Print | Product List | Glossary On
Versions: 1 2 3 4 5 6 7 8 9 10 11 12 13 14 15 16 17 18 19 20 21 22 23 24 25 26 27 28 29 30 31 32 33 34 35 36 37 38 39 40 41 42 43 44 45 46 47 48 49 50
998
ASUS45 KBOU 240810
RWRCO

WEATHER ROUNDUP FOR COLORADO
NATIONAL WEATHER SERVICE DENVER/BOULDER CO
100 AM MST FRI NOV 24 2017

NOTE: "FAIR" INDICATES FEW OR NO CLOUDS BELOW 12000 FEET WITH NO
SIGNIFICANT WEATHER AND/OR OBSTRUCTIONS TO VISIBILITY.

COZ001>005-013-030-031-240900-
...NORTHWEST COLORADO...

CITY           SKY/WX    TMP DP  RH WIND       PRES   REMARKS
CRAIG          FAIR      31  29  92 CALM      30.11F
HAYDEN         FAIR      38  33  82 E9        30.13F
MEEKER         FAIR      35  29  78 NE3       30.13F
RABBIT EARS PA FAIR      32  28  86 W12G20    30.24S WCI  23
STEAMBOAT SPGS FAIR      32  31  96 CALM      30.13F
WALDEN         CLOUDY    43  25  49 SE14      30.13F
$$

COZ006>008-011-240900-
...WEST CENTRAL VALLEYS...

CITY           SKY/WX    TMP DP  RH WIND       PRES   REMARKS
GRAND JUNCTION FAIR      43  33  68 E3        30.14S
MONTROSE       FAIR      35  27  72 CALM      30.19F
EAGLE          FAIR      30  27  88 CALM      30.20F
RIFLE          FAIR      34  31  88 CALM      30.17S
DELTA          FAIR      41  31  67 CALM      30.17S
NUCLA          FAIR      37  23  56 SE6       30.22F
$$

COZ017>023-064>068-240900-
...SOUTHWEST COLORADO...

CITY           SKY/WX    TMP DP  RH WIND       PRES   REMARKS
DURANGO        FAIR      31  24  75 N5        30.22S WCI  26
CORTEZ         FAIR      29  24  82 E7        30.21F WCI  22
PAGOSA SPRINGS FAIR      30  24  77 CALM      30.25F
TELLURIDE      FAIR      39  15  38 SE7       30.32F
WOLF CREEK PAS FAIR      32  21  64 SW10      30.44F WCI  24
$$

COZ009-010-012-014-032>034-037-058>063-240900-
...CENTRAL COLORADO...

CITY           SKY/WX    TMP DP  RH WIND       PRES   REMARKS
ASPEN          FAIR      29  23  78 S5        30.20F WCI  24
BUENA VISTA    FAIR      46  15  28 NW8       30.12F
COPPER MTN     NOT AVBL
BERTHOUD PASS  FAIR      28  19  69 W43G49    30.26F WCI  10
COTTONWOOD PAS FAIR      50  10  20 NW12G35   30.17F
GUNNISON       FAIR      25  22  88 CALM      30.25F
KREMMLING      FAIR      30  27  86 CALM      30.16F
LEADVILLE      FAIR      37   9  31 NE9       30.24F
MONARCH PASS   FAIR      32  18  55 W40       30.43S WCI  16
SALIDA         FAIR      41  22  47 CALM      30.18F
SUNLIGHT       MOCLDY    32  19  59 SW14G21   30.34F WCI  22
WILKERSON PASS FAIR      39   1  20 W22G38    30.21F
$$

COZ069>075-240900-
...SAN LUIS VALLEY/SANGRE DE CRISTO MOUNTAINS...

CITY           SKY/WX    TMP DP  RH WIND       PRES   REMARKS
ALAMOSA        FAIR      22  18  85 N3        30.19F
DEL NORTE      FAIR      38  15  40 W13       30.21S
LA VETA PASS   FAIR      36  25  64 MISG        N/A
SAGUACHE       FAIR      32  19  59 NW8       30.21F WCI  25
$$

COZ035-036-038>040-240900-
...NORTHERN COLORADO FRONT RANGE...

CITY           SKY/WX    TMP DP  RH WIND       PRES   REMARKS
DENVER INTL AP FAIR      55  20  25 SW9       29.89F
DMNS CITY PARK   N/A     58  19  21 N7        29.89S
AURORA         PTCLDY    54  19  25 CALM      29.90F
FRONT RANGE AP FAIR      58  22  24 SW13      29.89F
ERIE MUNI ARPT FAIR      44  27  49 SW8       29.92S
BOULDER MUN AP FAIR      59  25  27 SW3G10    29.86S
CENTENNIAL     FAIR      49  22  34 S7        29.92F
BROOMFIELD     FAIR      64  21  19 W25G44    29.90S
FORT COLLINS   FAIR      50  30  46 NE13      29.84F
LONGMONT       FAIR      64  24  22 W10G18    29.87F
$$

COZ041-046-047-076>085-087-088-240900-
...PIKES PEAK/PALMER DIVIDE AND SOUTHERN FOOTHILLS...

CITY           SKY/WX    TMP DP  RH WIND       PRES   REMARKS
COLO. SPRINGS  FAIR      52  19  27 NE12      29.96F
A. F. ACADEMY  FAIR      58  10  15 W21G26    29.97F
SCHRIEVER AFB  FAIR      53  12  20 NW9       29.97F
CHEYENNE MTN   FAIR      55  15  21 NW6       29.94F
ELLICOTT         N/A    N/A N/A N/A CALM      29.95F
FALCON         FAIR      54  10  17 W14G20    30.00F
FORT CARSON    FAIR      47  25  41 NW7       29.94F
LIMON          FAIR      34  27  75 N5        29.91F WCI  30
MONUMENT HILL  FAIR      46  18  31 SW9       30.02S
CANON CITY     FAIR      55  23  28 NW12      29.94F
WALSENBURG     FAIR      61  19  20 W15G22    30.00F
TRINIDAD       FAIR      51  25  36 W14       29.98F
$$

COZ042>045-048>051-090-091-240900-
...NORTHEAST COLORADO...

CITY           SKY/WX    TMP DP  RH WIND       PRES   REMARKS
GREELEY ARPT   FAIR      42  30  62 VRB5      29.84
AKRON          FAIR      49  27  42 SW10      29.84F
BURLINGTON     FAIR      41  33  73 W10       29.84F
WRAY           NOT AVBL
YUMA           FAIR      41  30  65 W9        29.82F
STERLING       FAIR      41  32  70 S6        29.81F
HOLYOKE        FAIR      43  30  61 W10       29.79F
FORT MORGAN    FAIR      43  26  50 SW5       29.84F
$$

COZ086-089-092>099-240900-
...SOUTHEAST COLORADO...

CITY           SKY/WX    TMP DP  RH WIND       PRES   REMARKS
PUEBLO         FAIR      57  24  28 SW10      29.89F
LA JUNTA       FAIR      42  30  62 VRB3      29.86F
LAMAR          FAIR      34  28  79 SW12      29.83F WCI  25
SPRINGFIELD      N/A     40  31  70 W5        29.88F
$$




USA.gov is the U.S. government's official web portal to all federal, state and local government web resources and services.